Location: Unspecified
(0.0000°N, 0.0000°E)
Time: 15:47:48
(UTC+00:00)

N. Korean satellite - Pass Details

Date: 19 November 2017
Orbit: 460 x 515 km, 97.2° (Epoch: 17 November)

Event Time Altitude Azimuth Distance (km) Brightness Sun altitude
Rises 18:28:07 0° 172° (S) 2,482 10.3 -10.0°
Reaches altitude 10° 18:30:09 10° 174° (S) 1,604 9.4 -10.5°
Maximum altitude 18:33:35 75° 258° (WSW) 480 6.7 -11.3°
Drops below altitude 10° 18:37:00 10° 345° (NNW) 1,602 9.1 -12.1°
Sets 18:39:03 0° 347° (NNW) 2,478 10.1 -12.6°
